CW2654 Weather Reports


Display with metric or nautical units.
time (UTC)temp
F
wind
direction
speed
MPH
gust
MPH
rain 1hr
in
rain 24hr
in
rain mn
in
humidity
%
barometer
mb
20260508190113 57 171 3.0 10.0 0.00 0.00 0.00 67 1022.3
20260508184618 56 348 2.0 10.0 0.00 0.00 0.00 73 1022.2
20260508183100 55 255 4.0 12.0 0.00 0.00 0.00 72 1022.1
20260508181605 56 246 0.0 5.0 0.00 0.00 0.00 73 1021.7
20260508180106 55 215 3.0 11.0 0.00 0.00 0.00 72 1021.9
20260508174556 55 224 3.0 10.0 0.00 0.00 0.00 73 1021.6
20260508173053 54 141 2.0 10.0 0.00 0.00 0.00 76 1021.4
20260508171557 54 168 3.0 8.0 0.00 0.00 0.00 76 1021.2
20260508170058 53 181 3.0 8.0 0.00 0.00 0.00 76 1021.0
20260508164554 52 227 5.0 10.0 0.00 0.00 0.00 80 1021.0
20260508163104 51 197 4.0 9.0 0.00 0.00 0.00 80 1020.6
20260508161557 49 150 2.0 6.0 0.00 0.00 0.00 83 1020.5
20260508160054 48 0 1.0 7.0 0.00 0.00 0.00 84 1020.4
20260508154556 48 0 2.0 10.0 0.00 0.00 0.00 84 1020.7
20260508153104 48 128 2.0 8.0 0.00 0.00 0.00 84 1020.9
20260508151556 48 134 1.0 5.0 0.00 0.00 0.00 85 1021.1
20260508150052 48 230 2.0 12.0 0.00 0.00 0.00 85 1021.1
20260508144550 48 239 7.0 16.0 0.00 0.00 0.00 84 1021.3
20260508143114 48 243 1.0 9.0 0.00 0.00 0.00 85 1020.9
20260508141559 48 0 1.0 10.0 0.00 0.00 0.00 85 1020.6
20260508140110 49 0 0.0 0.0 0.00 0.00 0.00 84 1020.1
20260508134552 49 0 0.0 2.0 0.00 0.00 0.00 82 1019.8
20260508133102 49 0 0.0 9.0 0.00 0.00 0.00 80 1019.6
20260508131552 49 0 0.0 1.0 0.00 0.00 0.00 79 1019.4
20260508130054 49 0 0.0 2.0 0.00 0.00 0.00 79 1019.2
20260508124554 49 0 0.0 0.0 0.00 0.00 0.00 81 1019.0
20260508123052 49 0 0.0 0.0 0.00 0.00 0.00 80 1019.0
20260508121550 48 0 0.0 5.0 0.00 0.00 0.00 82 1018.8
20260508120108 47 0 0.0 2.0 0.00 0.00 0.00 87 1018.7
20260508114600 46 0 0.0 0.0 0.00 0.00 0.00 91 1018.5
20260508113109 46 0 0.0 0.0 0.00 0.00 0.00 91 1018.3
20260508111551 46 0 0.0 0.0 0.00 0.00 0.00 91 1018.0
20260508104552 46 0 0.0 0.0 0.00 0.00 0.00 90 1017.8
20260508103058 46 0 0.0 0.0 0.00 0.00 0.00 90 1017.6
20260508101556 45 0 0.0 1.0 0.00 0.00 0.00 91 1017.5
20260508100125 45 128 0.0 1.0 0.00 0.00 0.00 90 1017.5
20260508094631 44 0 0.0 4.0 0.00 0.00 0.00 91 1017.4
20260508093053 44 80 1.0 6.0 0.00 0.00 0.00 91 1017.2
20260508091611 44 122 1.0 4.0 0.00 0.00 0.00 92 1017.1
20260508090053 44 111 1.0 4.0 0.00 0.00 0.00 92 1017.1
20260508084556 44 104 0.0 2.0 0.00 0.00 0.00 92 1017.0
20260508083056 44 107 1.0 3.0 0.00 0.00 0.00 91 1016.9
20260508081610 44 101 1.0 3.0 0.00 0.00 0.00 91 1016.8
20260508080059 45 102 0.0 2.0 0.00 0.00 0.00 91 1016.8
20260508074559 45 0 1.0 3.0 0.00 0.00 0.00 91 1016.8
20260508073102 45 107 1.0 4.0 0.00 0.00 0.00 91 1016.8
20260508071554 45 107 2.0 4.0 0.00 0.00 0.00 91 1016.8
20260508070052 45 99 1.0 4.0 0.00 0.00 0.00 90 1016.9
20260508064556 46 103 1.0 4.0 0.00 0.00 0.00 90 1016.9
20260508063058 46 103 2.0 6.0 0.00 0.00 0.00 90 1017.0
20260508061552 46 105 1.0 4.0 0.00 0.00 0.00 90 1017.0
20260508060111 46 109 2.0 4.0 0.00 0.00 0.00 90 1017.1
20260508054639 47 105 2.0 4.0 0.00 0.00 0.00 90 1017.1
20260508053053 47 98 2.0 4.0 0.00 0.00 0.00 89 1017.1
20260508051552 48 90 2.0 3.0 0.00 0.00 0.00 88 1017.1
20260508050053 48 105 2.0 4.0 0.00 0.00 0.00 88 1017.1
20260508044551 49 107 2.0 6.0 0.00 0.00 0.00 88 1017.1
20260508043058 50 110 2.0 4.0 0.00 0.00 0.00 87 1017.0
20260508041554 50 105 2.0 4.0 0.00 0.00 0.00 85 1017.0
20260508040055 52 108 0.0 3.0 0.00 0.00 0.00 84 1016.7
20260508034553 53 107 1.0 4.0 0.00 0.00 0.00 82 1016.4
20260508033049 54 100 1.0 4.0 0.00 0.00 0.00 80 1016.3
20260508031601 56 0 0.0 2.0 0.00 0.00 0.00 77 1016.2
20260508030104 58 0 0.0 2.0 0.00 0.00 0.00 74 1016.3
20260508024604 60 0 0.0 2.0 0.00 0.00 0.00 69 1016.2
20260508023057 62 0 0.0 1.0 0.00 0.00 0.00 63 1016.4
20260508021558 63 0 0.0 0.0 0.00 0.00 0.00 59 1016.5
20260508020104 63 0 0.0 0.0 0.00 0.00 0.00 55 1016.6
20260508014602 63 0 0.0 0.0 0.00 0.00 0.00 53 1016.7
20260508013051 64 0 0.0 3.0 0.00 0.00 0.00 54 1016.5
20260508011554 65 0 0.0 2.0 0.00 0.00 0.00 47 1016.7
20260508010054 65 0 0.0 1.0 0.00 0.00 0.00 50 1016.8
20260508004553 65 0 0.0 4.0 0.00 0.00 0.00 46 1017.0
20260508003055 64 0 0.0 4.0 0.00 0.00 0.00 47 1017.2
20260508001553 64 0 0.0 4.0 0.00 0.00 0.00 50 1017.1
20260508000056 65 323 1.0 3.0 0.00 0.00 0.00 46 1017.4
20260507234553 65 0 0.0 5.0 0.00 0.00 0.00 51 1017.3
20260507233055 66 13 0.0 4.0 0.00 0.00 0.00 46 1017.6
20260507231555 65 254 0.0 6.0 0.00 0.00 0.00 56 1017.6
20260507230054 65 186 0.0 4.0 0.00 0.00 0.00 54 1017.6
20260507224557 64 0 1.0 5.0 0.00 0.00 0.00 55 1017.9
20260507223052 64 0 1.0 4.0 0.00 0.00 0.00 55 1018.0
20260507221554 64 296 2.0 9.0 0.00 0.00 0.00 56 1018.1
20260507220056 63 0 0.0 4.0 0.00 0.00 0.00 59 1018.3
20260507214552 63 24 1.0 4.0 0.00 0.00 0.00 61 1018.5
20260507213051 62 0 0.0 3.0 0.00 0.00 0.00 62 1018.7
20260507211555 62 323 1.0 6.0 0.00 0.00 0.00 62 1018.9
20260507204551 61 310 2.0 4.0 0.00 0.00 0.00 68 1019.0
20260507203055 60 0 0.0 5.0 0.00 0.00 0.00 70 1019.2
20260507201549 60 329 0.0 4.0 0.00 0.00 0.00 69 1019.3
20260507200051 60 336 1.0 7.0 0.00 0.00 0.00 69 1019.3
20260507194554 60 298 1.0 4.0 0.00 0.00 0.00 70 1019.5
20260507193055 58 0 1.0 4.0 0.00 0.00 0.00 70 1019.7
20260507191553 58 0 1.0 5.0 0.00 0.00 0.00 74 1019.7